JTA556 ROMY-ROAH

Flight info

Callsign JTA556
Flight time 0h 33m
Altitude 21000
Route FREED Y57 VELNO
Aircraft B738/M-SDE2E3FGHIRWXY/LB1

Departure

Time 2026-04-17 03:05
Airport Miyako Airport (ROMY)

Arrival

Time 2026-04-17 03:38
Airport Naha International Airport (ROAH)
Time Latitude Longitude Altitude Speed Heading
2026-04-17 02:45 24.77981 125.29677 145 ft 0 kts 128°
2026-04-17 02:57 24.77995 125.29658 144 ft 4 kts 130°
2026-04-17 02:58 24.78008 125.29633 143 ft 4 kts 96°
2026-04-17 02:58 24.78003 125.29607 143 ft 4 kts 53°
2026-04-17 02:58 24.77991 125.29594 143 ft 0 kts 38°
2026-04-17 03:00 24.78000 125.29602 143 ft 5 kts 39°
2026-04-17 03:00 24.78036 125.29633 144 ft 8 kts 38°
2026-04-17 03:01 24.78089 125.29677 145 ft 11 kts 32°
2026-04-17 03:01 24.78142 125.29699 145 ft 4 kts 348°
2026-04-17 03:01 24.78167 125.29674 145 ft 7 kts 310°
2026-04-17 03:01 24.78218 125.29603 147 ft 16 kts 308°
2026-04-17 03:02 24.78275 125.29534 147 ft 10 kts 336°
2026-04-17 03:02 24.78339 125.29562 146 ft 11 kts 38°
2026-04-17 03:02 24.78408 125.29621 145 ft 16 kts 38°
2026-04-17 03:02 24.78522 125.29721 144 ft 24 kts 38°
2026-04-17 03:03 24.78655 125.29836 141 ft 24 kts 38°
2026-04-17 03:03 24.78779 125.29943 143 ft 19 kts 38°
2026-04-17 03:03 24.78876 125.30027 143 ft 15 kts 38°
2026-04-17 03:03 24.78926 125.30103 143 ft 8 kts 66°
2026-04-17 03:04 24.78967 125.30129 145 ft 7 kts 332°
2026-04-17 03:04 24.78950 125.30090 144 ft 8 kts 208°
2026-04-17 03:04 24.78943 125.30084 144 ft 0 kts 217°
2026-04-17 03:04 24.78924 125.30068 143 ft 22 kts 218°
2026-04-17 03:05 24.78591 125.29779 143 ft 98 kts 218°
2026-04-17 03:05 24.77888 125.29173 204 ft 151 kts 218°
2026-04-17 03:05 24.77038 125.28471 861 ft 158 kts 214°
2026-04-17 03:05 24.75954 125.28268 1524 ft 168 kts 162°
2026-04-17 03:06 24.75092 125.29153 2146 ft 185 kts 116°
2026-04-17 03:06 24.74811 125.30654 2439 ft 218 kts 89°
2026-04-17 03:06 24.75285 125.32307 2659 ft 240 kts 57°
2026-04-17 03:06 24.76250 125.33878 2978 ft 259 kts 54°
2026-04-17 03:07 24.77316 125.35558 3483 ft 275 kts 54°
2026-04-17 03:07 24.78408 125.37290 4458 ft 274 kts 54°
2026-04-17 03:07 24.79482 125.39011 5265 ft 279 kts 54°
2026-04-17 03:07 24.80583 125.40796 6059 ft 284 kts 54°
2026-04-17 03:08 24.81700 125.42620 6819 ft 288 kts 54°
2026-04-17 03:08 24.82820 125.44464 7546 ft 293 kts 54°
2026-04-17 03:08 24.83960 125.46348 8268 ft 298 kts 54°
2026-04-17 03:08 24.85113 125.48261 9005 ft 302 kts 53°
2026-04-17 03:09 24.86268 125.50182 9736 ft 307 kts 53°
2026-04-17 03:09 24.87469 125.52184 10355 ft 315 kts 53°
2026-04-17 03:09 24.88719 125.54244 10546 ft 339 kts 53°
2026-04-17 03:09 24.90093 125.56455 10747 ft 359 kts 53°
2026-04-17 03:10 24.91519 125.58757 11209 ft 368 kts 53°
2026-04-17 03:10 24.92953 125.61104 11855 ft 371 kts 54°
2026-04-17 03:10 24.94388 125.63478 12562 ft 373 kts 54°
2026-04-17 03:10 24.95824 125.65872 13254 ft 376 kts 54°
2026-04-17 03:11 24.97272 125.68299 13900 ft 381 kts 54°
2026-04-17 03:11 24.98730 125.70751 14490 ft 384 kts 55°
2026-04-17 03:11 25.00201 125.73227 15090 ft 388 kts 55°
2026-04-17 03:11 25.01686 125.75733 15693 ft 392 kts 55°
2026-04-17 03:12 25.03187 125.78266 16288 ft 396 kts 55°
2026-04-17 03:12 25.04701 125.80823 16880 ft 400 kts 55°
2026-04-17 03:12 25.06210 125.83373 17441 ft 404 kts 55°
2026-04-17 03:12 25.07752 125.85980 18027 ft 407 kts 55°
2026-04-17 03:13 25.09306 125.88610 18550 ft 411 kts 55°
2026-04-17 03:13 25.10875 125.91264 19036 ft 414 kts 55°
2026-04-17 03:13 25.12454 125.93939 19511 ft 418 kts 55°
2026-04-17 03:13 25.14048 125.96639 19959 ft 422 kts 55°
2026-04-17 03:14 25.15658 125.99369 20472 ft 424 kts 55°
2026-04-17 03:14 25.17269 126.02102 20939 ft 427 kts 55°
2026-04-17 03:14 25.18910 126.04886 20957 ft 438 kts 55°
2026-04-17 03:14 25.20594 126.07743 20977 ft 448 kts 55°
2026-04-17 03:15 25.22311 126.10659 20977 ft 456 kts 55°
2026-04-17 03:15 25.24040 126.13600 20969 ft 455 kts 55°
2026-04-17 03:15 25.25737 126.16491 20959 ft 451 kts 55°
2026-04-17 03:15 25.27446 126.19404 20953 ft 449 kts 55°
2026-04-17 03:16 25.29143 126.22295 20964 ft 448 kts 55°
2026-04-17 03:16 25.30837 126.25184 20970 ft 448 kts 55°
2026-04-17 03:16 25.32535 126.28079 20970 ft 449 kts 55°
2026-04-17 03:16 25.34237 126.30983 20971 ft 451 kts 55°
2026-04-17 03:17 25.35944 126.33897 20967 ft 452 kts 55°
2026-04-17 03:17 25.37658 126.36825 20967 ft 453 kts 55°
2026-04-17 03:17 25.39352 126.39724 20966 ft 454 kts 55°
2026-04-17 03:17 25.41067 126.42657 20963 ft 454 kts 55°
2026-04-17 03:18 25.42762 126.45561 20948 ft 440 kts 55°
2026-04-17 03:18 25.44390 126.48353 20943 ft 423 kts 55°
2026-04-17 03:18 25.45963 126.51050 20955 ft 414 kts 55°
2026-04-17 03:18 25.47524 126.53725 20961 ft 413 kts 55°
2026-04-17 03:19 25.49047 126.56386 20720 ft 416 kts 56°
2026-04-17 03:19 25.50544 126.59099 20363 ft 411 kts 57°
2026-04-17 03:19 25.52019 126.61810 19926 ft 409 kts 57°
2026-04-17 03:19 25.53479 126.64501 19489 ft 406 kts 57°
2026-04-17 03:20 25.54931 126.67170 19033 ft 404 kts 57°
2026-04-17 03:20 25.56388 126.69841 18572 ft 402 kts 57°
2026-04-17 03:20 25.57832 126.72483 18087 ft 400 kts 57°
2026-04-17 03:20 25.59268 126.75110 17592 ft 397 kts 57°
2026-04-17 03:21 25.60696 126.77720 17117 ft 393 kts 57°
2026-04-17 03:21 25.62108 126.80304 16656 ft 390 kts 57°
2026-04-17 03:21 25.63490 126.82832 16224 ft 387 kts 57°
2026-04-17 03:21 25.64879 126.85376 15775 ft 385 kts 57°
2026-04-17 03:22 25.66258 126.87903 15337 ft 382 kts 57°
2026-04-17 03:22 25.67631 126.90419 14893 ft 380 kts 57°
2026-04-17 03:22 25.68995 126.92921 14377 ft 379 kts 57°
2026-04-17 03:22 25.70375 126.95453 13685 ft 385 kts 57°
2026-04-17 03:23 25.71760 126.97997 13079 ft 384 kts 57°
2026-04-17 03:23 25.73139 127.00531 12549 ft 382 kts 57°
2026-04-17 03:23 25.74506 127.03046 12040 ft 379 kts 57°
2026-04-17 03:23 25.75863 127.05543 11569 ft 376 kts 57°
2026-04-17 03:24 25.77208 127.08020 11121 ft 372 kts 57°
2026-04-17 03:24 25.78536 127.10468 10669 ft 369 kts 57°
2026-04-17 03:24 25.79824 127.12843 10500 ft 357 kts 57°
2026-04-17 03:24 25.81087 127.15174 10339 ft 347 kts 56°
2026-04-17 03:25 25.82314 127.17440 10194 ft 336 kts 56°
2026-04-17 03:25 25.83500 127.19629 10067 ft 326 kts 56°
2026-04-17 03:25 25.84654 127.21759 9865 ft 319 kts 56°
2026-04-17 03:25 25.85795 127.23863 9548 ft 316 kts 56°
2026-04-17 03:26 25.86923 127.25947 9257 ft 312 kts 56°
2026-04-17 03:26 25.88022 127.27979 8986 ft 309 kts 56°
2026-04-17 03:26 25.89153 127.29984 8728 ft 303 kts 49°
2026-04-17 03:26 25.90707 127.31482 8467 ft 292 kts 26°
2026-04-17 03:27 25.91895 127.32146 8321 ft 287 kts 21°
2026-04-17 03:27 25.93707 127.33062 8072 ft 283 kts 20°
2026-04-17 03:27 25.95500 127.33945 7822 ft 280 kts 20°
2026-04-17 03:27 25.97265 127.34814 7637 ft 276 kts 20°
2026-04-17 03:28 25.99012 127.35679 7387 ft 277 kts 21°
2026-04-17 03:28 26.00767 127.36553 7111 ft 277 kts 21°
2026-04-17 03:28 26.02521 127.37431 6815 ft 276 kts 21°
2026-04-17 03:28 26.04246 127.38297 6540 ft 275 kts 21°
2026-04-17 03:29 26.05990 127.39175 6243 ft 274 kts 21°
2026-04-17 03:29 26.07723 127.40049 5942 ft 273 kts 21°
2026-04-17 03:29 26.09455 127.40924 5651 ft 272 kts 21°
2026-04-17 03:29 26.11176 127.41795 5360 ft 271 kts 21°
2026-04-17 03:30 26.12889 127.42661 5081 ft 270 kts 22°
2026-04-17 03:30 26.14595 127.43524 4804 ft 269 kts 22°
2026-04-17 03:30 26.16302 127.44388 4516 ft 270 kts 22°
2026-04-17 03:30 26.18018 127.45257 4181 ft 271 kts 22°
2026-04-17 03:31 26.19707 127.46114 3900 ft 270 kts 22°
2026-04-17 03:31 26.21417 127.46980 3603 ft 270 kts 22°
2026-04-17 03:31 26.23130 127.47848 3317 ft 269 kts 23°
2026-04-17 03:31 26.24836 127.48714 3048 ft 268 kts 24°
2026-04-17 03:32 26.26532 127.49575 2788 ft 266 kts 24°
2026-04-17 03:32 26.28184 127.50414 2681 ft 257 kts 24°
2026-04-17 03:32 26.29768 127.51217 2609 ft 244 kts 25°
2026-04-17 03:32 26.31265 127.51977 2461 ft 236 kts 25°
2026-04-17 03:33 26.32719 127.52764 2360 ft 228 kts 36°
2026-04-17 03:33 26.33709 127.54072 2269 ft 220 kts 70°
2026-04-17 03:33 26.34025 127.55724 2067 ft 216 kts 88°
2026-04-17 03:33 26.34098 127.57370 1849 ft 208 kts 90°
2026-04-17 03:34 26.34149 127.58960 1620 ft 202 kts 91°
2026-04-17 03:34 26.34152 127.60492 1401 ft 193 kts 103°
2026-04-17 03:34 26.33602 127.61759 1283 ft 179 kts 135°
2026-04-17 03:34 26.32614 127.62502 1210 ft 165 kts 161°
2026-04-17 03:35 26.31494 127.62678 1211 ft 161 kts 176°
2026-04-17 03:35 26.30395 127.62742 1202 ft 157 kts 176°
2026-04-17 03:35 26.29335 127.62797 1234 ft 148 kts 176°
2026-04-17 03:35 26.28320 127.62847 1207 ft 144 kts 176°
2026-04-17 03:36 26.26347 127.62945 1209 ft 142 kts 176°
2026-04-17 03:36 26.25344 127.62994 1063 ft 147 kts 176°
2026-04-17 03:36 26.24673 127.63027 950 ft 145 kts 176°
2026-04-17 03:37 26.23665 127.63077 759 ft 143 kts 175°
2026-04-17 03:37 26.22362 127.63143 493 ft 140 kts 176°
2026-04-17 03:37 26.21394 127.63188 325 ft 140 kts 176°
2026-04-17 03:37 26.20412 127.63231 90 ft 142 kts 174°
2026-04-17 03:38 26.19474 127.63276 16 ft 115 kts 177°
2026-04-17 03:38 26.19034 127.63300 14 ft 73 kts 178°
2026-04-17 03:38 26.18729 127.63376 15 ft 36 kts 150°
2026-04-17 03:38 26.18633 127.63454 18 ft 5 kts 112°
2026-04-17 03:39 26.18647 127.63499 16 ft 9 kts 41°
2026-04-17 03:39 26.18734 127.63506 16 ft 17 kts 357°
2026-04-17 03:39 26.18870 127.63499 16 ft 21 kts 357°
2026-04-17 03:39 26.19012 127.63493 16 ft 20 kts 358°
2026-04-17 03:40 26.19149 127.63486 16 ft 19 kts 357°
2026-04-17 03:40 26.19282 127.63480 16 ft 19 kts 358°
2026-04-17 03:40 26.19411 127.63473 16 ft 18 kts 358°
2026-04-17 03:40 26.19535 127.63468 16 ft 18 kts 357°
2026-04-17 03:41 26.19657 127.63462 16 ft 19 kts 357°
2026-04-17 03:41 26.19804 127.63455 16 ft 22 kts 358°
2026-04-17 03:41 26.19955 127.63447 16 ft 22 kts 357°
2026-04-17 03:41 26.20105 127.63441 16 ft 21 kts 357°
2026-04-17 03:42 26.20231 127.63435 16 ft 16 kts 358°
2026-04-17 03:42 26.20301 127.63488 16 ft 13 kts 83°
2026-04-17 03:42 26.20304 127.63588 16 ft 13 kts 87°
2026-04-17 03:42 26.20308 127.63693 16 ft 16 kts 87°
2026-04-17 03:43 26.20314 127.63847 16 ft 22 kts 88°
2026-04-17 03:43 26.20321 127.64020 17 ft 22 kts 88°
2026-04-17 03:43 26.20327 127.64190 16 ft 22 kts 87°
2026-04-17 03:43 26.20333 127.64354 16 ft 21 kts 88°
2026-04-17 03:44 26.20340 127.64513 18 ft 20 kts 88°
2026-04-17 03:44 26.20348 127.64632 16 ft 12 kts 73°
2026-04-17 03:44 26.20411 127.64688 16 ft 12 kts 27°
2026-04-17 03:44 26.20483 127.64729 16 ft 11 kts 27°
2026-04-17 03:45 26.20557 127.64748 16 ft 11 kts
2026-04-17 03:45 26.20623 127.64785 17 ft 11 kts 55°
2026-04-17 03:45 26.20633 127.64863 19 ft 9 kts 91°
2026-04-17 03:45 26.20600 127.64902 20 ft 6 kts 148°
2026-04-17 03:46 26.20566 127.64925 21 ft 4 kts 148°
2026-04-17 03:46 26.20562 127.64928 20 ft 0 kts 148°